Regional Weather Roundup
Issued by NWS Goodland, KS

Home | Current Version | Previous Version | Text Only | Print | Product List | Glossary Off
Versions: 1 2 3 4 5 6 7 8 9 10 11 12 13 14 15 16 17 18 19 20 21 22 23 24 25 26 27 28 29 30 31 32 33 34 35 36 37 38 39 40 41 42 43 44 45 46 47 48 49 50

000
ASUS43 KGLD 042108
RWRGLD

GOODLAND FORECAST AREA HOURLY WEATHER ROUNDUP
NATIONAL WEATHER SERVICE GOODLAND KS
300 PM MDT MON MAY 04 2015

...OFFICIAL OBSERVATIONS...

CITY           SKY/WX    TMP DP  RH WIND       PRES   REMARKS
GOODLAND KS    PTSUNNY   64  47  53 NE13      30.07F
HILL CITY KS   PTSUNNY   72  56  57 VRB5      30.04F
IMPERIAL NEB   CLOUDY    51  46  83 NE15      30.13S
MCCOOK NEB     CLOUDY    58  43  57 NE12      30.10F
AKRON CO       CLOUDY    57  45  64 E13       30.11F
BURLINGTON CO  CLOUDY    63  49  60 E10       30.08F
LIMON CO       PTSUNNY   61  47  59 E20G25    30.07F
$$

...UNOFFICIAL OBSERVATIONS...

CITY           SKY/WX    TMP DP  RH WIND       PRES   REMARKS
COLBY KS       PTSUNNY   66  52  59 N10G17    30.06F
GOVE KS          N/A     72  32  23 MISG        N/A
LENORA KS        N/A     65  32  29 MISG        N/A
NORTON KS      MOSUNNY   66  45  45 N8        30.05
SHARON SPRINGS   N/A     68  54  61 MISG        N/A
KIT CARSON CO    N/A     63  50  63 MISG        N/A
YUMA CO          N/A     54  45  71 E12         N/A
$$



USA.gov is the U.S. government's official web portal to all federal, state and local government web resources and services.